Back to catalog

STARLINK-3709

AliveCommunicationsVLEO
NORAD 52102·PAYLOAD·🇺🇸 United States

Launched Mar 19, 2022 from Cape Canaveral Space Force Station

Loading…

Next Passes (next 24 hours)

TLE

FreshSource: CelesTrak SupGP

Epoch: Sep 14, 2026, 20:53 UTC

1 52102C 22029Q   26257.87062500  .00003339  00000+0  10135-3 0  2572
2 52102  53.1564 296.1716 0001133  92.9519 266.1240 15.33537748    19

Track STARLINK-3709 in real time with AllMySat

Download on the App Store